Weather History for Geneve-Cointrin, Switzerland

Change the Weather History Date:

Saturday, October 12, 2013

  Actual Average Record
Temperature  
Mean Temperature 45 °F -  
Max Temperature 50 °F 53 °F - ()
Min Temperature 40 °F 39 °F - ()
Degree Days  
Heating Degree Days 20    
Moisture  
Dew Point 40 °F    
Average Humidity 85    
Maximum Humidity 100    
Minimum Humidity 49    
Precipitation  
Precipitation 0.35 in 0.10 in - ()
Sea Level Pressure  
Sea Level Pressure 30.03 in    
Wind  
Wind Speed 2 mph ()    
Max Wind Speed 8 mph    
Max Gust Speed -    
Visibility 5.8 miles    
Events Rain    
T = Trace of Precipitation, MM = Missing Value Source: Averaged Metar Reports

Daily Weather History Graph

Daily Weather History Graph

Search for Another Location

Airport:

Trip Planner

Search our weather history database for the weather conditions in past years. The results will help you decide how hot, cold, wet, or windy it might be!

Date:

Astronomy

Oct. 12, 2013 Rise Set
Actual Time 7:48 AM CEST 6:54 PM CEST
Civil Twilight 7:18 AM CEST 7:24 PM CEST
Nautical Twilight 6:43 AM CEST 7:59 PM CEST
Astronomical Twilight 6:08 AM CEST 8:34 PM CEST
Moon 3:12 PM CEST 12:12 AM CEST
Length of Visible Light 12h 06m
Length of Day
11h 06m
First Quarter, 55% of the Moon is Illuminated
Oct 12
First Quarter
Oct 19
Full
Oct 27
Last Quarter
Nov 3
New
Nov 10
First Quarter

Hourly Weather History & Observations

Time (CEST) Temp. Windchill Dew Point Humidity Pressure Visibility Wind Dir Wind Speed Gust Speed Precip Events Conditions
12:20 AM 42.8 °F - 41.0 °F 93% 29.98 in 6.2 mi Calm Calm - N/A   Mostly Cloudy
12:50 AM 42.8 °F - 41.0 °F 93% 29.98 in 6.2 mi Calm Calm - N/A   Mostly Cloudy
1:00 AM 43 °F - 40 °F 83% 30.01 in - West 2.3 mph - -  
1:20 AM 42.8 °F - 41.0 °F 93% 29.98 in 6.2 mi Variable 1.2 mph - N/A   Mostly Cloudy
1:50 AM 42.8 °F - 41.0 °F 93% 29.98 in 6.2 mi WNW 1.2 mph - N/A   Mostly Cloudy
2:00 AM 42 °F - 40 °F 88% 30.02 in 12 mi NW 3.5 mph - -   Partly Cloudy
2:20 AM 42.8 °F - 41.0 °F 93% 29.98 in 6.2 mi South 1.2 mph - N/A   Mostly Cloudy
2:50 AM 42.8 °F - 41.0 °F 93% 30.01 in 6.2 mi West 1.2 mph - N/A   Mostly Cloudy
3:00 AM 43 °F - 40 °F 85% 30.03 in - NW 3.5 mph - -  
3:50 AM 42.8 °F 41.1 °F 41.0 °F 93% 30.01 in 6.2 mi SW 3.5 mph - N/A   Mostly Cloudy
4:00 AM 43 °F - 39 °F 81% 30.04 in - WSW 3.5 mph - -  
4:20 AM 42.8 °F - 41.0 °F 93% 30.01 in 6.2 mi SW 2.3 mph - N/A Rain Light Rain Showers
4:50 AM 42.8 °F 40.1 °F 41.0 °F 93% 30.01 in 6.2 mi SSW 4.6 mph - N/A Rain Light Rain Showers
5:20 AM 41.0 °F - 41.0 °F 100% 30.01 in 6.2 mi WSW 1.2 mph - N/A   Mostly Cloudy
5:50 AM 41.0 °F - 41.0 °F 100% 30.01 in 6.2 mi WSW 1.2 mph - N/A   Scattered Clouds
6:00 AM 41 °F - 40 °F 92% 30.05 in - West 2.3 mph - -  
6:20 AM 41.0 °F - 39.2 °F 93% 30.01 in 6.2 mi Calm Calm - N/A   Scattered Clouds
6:50 AM 41.0 °F - 39.2 °F 93% 30.01 in 6.2 mi Variable 1.2 mph - N/A   Mostly Cloudy
7:00 AM 42 °F - 40 °F 90% 30.06 in - NE 1.2 mph - -  
7:20 AM 41.0 °F - 39.2 °F 93% 30.01 in 6.2 mi Calm Calm - N/A   Mostly Cloudy
7:50 AM 41.0 °F - 39.2 °F 93% 30.01 in 6.2 mi Variable 1.2 mph - N/A   Mostly Cloudy
8:00 AM 42 °F - 40 °F 91% 30.06 in 11 mi North 1.2 mph - -   Partly Cloudy
8:20 AM 41.0 °F - 39.2 °F 93% 30.01 in 6.2 mi Calm Calm - N/A   Scattered Clouds
8:50 AM 41.0 °F - 39.2 °F 93% 30.04 in 6.2 mi Calm Calm - N/A   Partly Cloudy
9:00 AM 42 °F - 40 °F 88% 30.07 in - WNW 2.3 mph - -  
9:20 AM 41.0 °F - 39.2 °F 93% 30.04 in 6.2 mi Calm Calm - N/A   Partly Cloudy
9:50 AM 42.8 °F - 41.0 °F 93% 30.04 in 6.2 mi Variable 1.2 mph - N/A   Partly Cloudy
10:00 AM 45 °F - 41 °F 81% 30.06 in - SW 2.3 mph - -  
10:20 AM 46.4 °F - 41.0 °F 81% 30.04 in 6.2 mi Variable 2.3 mph - N/A   Scattered Clouds
10:50 AM 46.4 °F - 41.0 °F 81% 30.04 in 6.2 mi Variable 2.3 mph - N/A   Scattered Clouds
11:20 AM 46.4 °F - 41.0 °F 81% 30.04 in 6.2 mi Variable 1.2 mph - N/A   Scattered Clouds
11:50 AM 50.0 °F - 39.2 °F 66% 30.01 in 6.2 mi Variable 2.3 mph - N/A   Scattered Clouds
12:00 PM 48 °F - 37 °F 56% 30.04 in - WSW 4.6 mph - -  
12:20 PM 48.2 °F - 39.2 °F 71% 30.01 in 6.2 mi Variable 3.5 mph - N/A   Scattered Clouds
12:50 PM 51.8 °F - 41.0 °F 67% 30.01 in 6.2 mi North 3.5 mph - N/A   Scattered Clouds
1:00 PM 50 °F - 38 °F 52% 30.03 in - North 3.5 mph - -  
1:20 PM 50.0 °F - 39.2 °F 66% 30.01 in 6.2 mi Variable 1.2 mph - N/A   Mostly Cloudy
1:50 PM 51.8 °F - 37.4 °F 58% 30.01 in 6.2 mi Variable 1.2 mph - N/A   Mostly Cloudy
2:00 PM 50 °F - 36 °F 49% 30.02 in 22 mi NNW 2.3 mph - -   Scattered Clouds
2:20 PM 50.0 °F - 37.4 °F 62% 30.01 in 6.2 mi Variable 2.3 mph - N/A   Overcast
2:50 PM 50.0 °F - 37.4 °F 62% 30.01 in 6.2 mi Variable 1.2 mph - N/A   Mostly Cloudy
3:00 PM 50 °F - 37 °F 50% 30.01 in - North 2.3 mph - -  
3:20 PM 50.0 °F - 39.2 °F 66% 30.01 in 5.6 mi Variable 3.5 mph - N/A Rain Light Rain
3:50 PM 44.6 °F 41.4 °F 41.0 °F 87% 30.01 in 4.3 mi South 5.8 mph - N/A Rain Rain
4:00 PM 45 °F - 42 °F 85% 30.04 in - SSE 4.6 mph - -  
4:20 PM 44.6 °F 43.1 °F 42.8 °F 93% 30.01 in 4.3 mi WSW 3.5 mph - N/A Rain Light Rain
4:50 PM 44.6 °F 41.4 °F 42.8 °F 93% 30.01 in 3.7 mi WSW 5.8 mph - N/A Rain Rain
5:20 PM 44.6 °F 40.2 °F 41.0 °F 87% 30.04 in 3.7 mi SW 8.1 mph - N/A Rain Rain
5:50 PM 42.8 °F 38.0 °F 41.0 °F 93% 30.04 in 3.7 mi SW 8.1 mph - N/A Rain Rain
6:00 PM 43 °F - 39 °F 82% 30.06 in - West 6.9 mph - -  
6:20 PM 42.8 °F 41.1 °F 41.0 °F 93% 30.04 in 3.7 mi West 3.5 mph - N/A Rain Rain
6:50 PM 41.0 °F 39.0 °F 39.2 °F 93% 30.04 in 4.3 mi Variable 3.5 mph - N/A Rain Rain
7:00 PM 41 °F - 38 °F 83% 30.07 in - NW 3.5 mph - -  
7:20 PM 41.0 °F - 39.2 °F 93% 30.04 in 4.3 mi Variable 2.3 mph - N/A Rain Rain
7:50 PM 41.0 °F - 39.2 °F 93% 30.04 in 4.3 mi Variable 1.2 mph - N/A Rain Rain
8:00 PM 41 °F - 38 °F 85% 30.09 in 4 mi NNW 2.3 mph - - Rain Rain
8:20 PM 41.0 °F - 39.2 °F 93% 30.04 in 5.0 mi Variable 1.2 mph - N/A Rain Rain
8:50 PM 41.0 °F - 39.2 °F 93% 30.04 in 6.2 mi Calm Calm - N/A Rain Light Rain
9:00 PM 41 °F - 40 °F 92% 30.09 in - ENE 2.3 mph - -  
9:20 PM 41.0 °F - 41.0 °F 100% 30.06 in 6.2 mi Calm Calm - N/A Rain Light Rain
9:50 PM 41.0 °F - 41.0 °F 100% 30.06 in 5.6 mi Variable 2.3 mph - N/A Rain Rain
10:00 PM 42 °F - 40 °F 91% 30.10 in - SE 1.2 mph - -  
10:20 PM 41.0 °F - 41.0 °F 100% 30.06 in 5.6 mi Variable 1.2 mph - N/A Rain Light Rain
10:50 PM 42.8 °F - 41.0 °F 93% 30.06 in 5.0 mi Variable 1.2 mph - N/A Rain Light Rain
11:20 PM 42.8 °F - 41.0 °F 93% 30.06 in 4.3 mi Variable 1.2 mph - N/A Rain Rain
11:50 PM 42.8 °F - 42.8 °F 100% 30.06 in 4.3 mi Calm Calm - N/A Rain Light Rain